TDRS 13

Last updated on Mon Nov 03 2025 00:02:47 GMT+0000 (Coordinated Universal Time)

1 42915U 17047A 25306.39308787 -.00000094 00000+0 00000+0 0 9993 2 42915 3.4268 356.8445 0011665 130.2874 44.7885 1.00271639 30070
UTC large
Height (km)
Speed (km/s)
/
Latitude / Longitude
Inclination (degrees)
Orbital Period (minutes)
Azimuth
Elevation
Range (km)
Doppler Factor

Next 0 passes for location: London (51.5072 / 0.1276)

Sorry there are no passes over London.